Location: A�t Bou Chrif
(32.7193°N, 5.2385°W)
Time: 23:19:20
(UTC+00:00)

Aureole 1 Rocket - Pass Details

Date: 08 August 2020
Orbit: 378 x 1379 km, 73.9° (Epoch: 18 September)

Event Time Altitude Azimuth Distance (km) Brightness Sun altitude
Exits shadow 21:16:17 22° 192° (SSW) 1,936 5.3 -23.5°
Maximum altitude 21:20:33 85° 105° (ESE) 1,075 4.1 -24.2°
Drops below altitude 10° 21:28:18 10° 18° (NNE) 3,236 7.0 -25.4°
Sets 21:31:21 0° 18° (NNE) 4,301 7.7 -25.9°
